Location: Frydek-Mistek
(49.6830°N, 18.3330°E)
Time: 22:49:44
(UTC+02:00)

ISS - Visible Passes

Search period start: 16 April 2026 00:00
Search period end: 26 April 2026 00:00
Orbit: 415 x 424 km, 51.6° (Epoch: 16 April)

Date Brightness Start Highest point End Pass type
(mag) Time Alt. Az. Time Alt. Az. Time Alt. Az.
19 Apr -1.1 04:40:41 10° SSE 04:42:20 13° SE 04:43:59 10° ESE visible
21 Apr -2.2 04:41:05 11° SSW 04:43:56 28° SE 04:46:53 10° E visible
22 Apr -1.8 03:55:29 16° SSE 03:56:39 19° SE 03:59:10 10° E visible
23 Apr -1.2 03:09:49 13° SE 03:09:49 13° SE 03:11:04 10° ESE visible
23 Apr -3.4 04:42:46 13° SW 04:45:40 57° SSE 04:49:00 10° ENE visible
24 Apr -3.0 03:57:02 28° SSW 03:58:17 40° SSE 04:01:29 10° E visible
25 Apr -2.4 03:11:15 28° SE 03:11:15 28° SE 03:13:52 10° E visible
25 Apr -3.7 04:44:11 10° WSW 04:47:31 83° NNW 04:50:54 10° ENE visible
